Location: Zagreb
(45.8000°N, 16.0000°E)
Time: 22:09:36
(UTC+02:00)

Vanguard 1 - Visible Passes

Search period start: 09 August 2022 00:00
Search period end: 19 August 2022 00:00
Orbit: 648 x 3833 km, 34.3° (Epoch: 08 August)

Date Brightness Start Highest point End Pass type
(mag) Time Alt. Az. Time Alt. Az. Time Alt. Az.
09 Aug 13.2 03:08:48 11° S 03:18:50 22° SE 03:32:44 10° E visible
10 Aug 13.1 03:28:19 14° S 03:38:42 28° SE 03:55:03 10° E visible
11 Aug 12.9 03:47:49 15° SSW 03:58:42 34° SE 04:16:53 10° E visible
12 Aug 13.2 01:54:37 11° SE 01:59:07 13° ESE 02:05:56 10° E visible
12 Aug 12.9 04:07:18 15° SSW 04:18:52 40° SE 04:38:25 10° E visible
13 Aug 13.0 02:14:05 16° SSE 02:18:46 19° SE 02:29:47 10° E visible
13 Aug 12.8 04:26:46 14° SW 04:39:12 46° SSE 04:59:47 10° E visible
14 Aug 12.8 02:33:32 20° SSE 02:38:33 25° SE 02:52:16 10° E visible
14 Aug 12.8 04:46:13 12° SW 04:59:41 51° SSE 05:21:02 10° E visible
15 Aug 12.6 02:52:59 24° S 02:58:29 31° SE 03:14:12 10° E visible
15 Aug 12.9 05:05:46 10° WSW 05:20:19 55° SSE 05:42:12 10° E visible
16 Aug 12.4 03:12:24 26° S 03:18:34 37° SE 03:35:48 10° E visible
17 Aug 13.0 01:19:09 15° SE 01:19:19 15° SE 01:26:45 10° E visible
17 Aug 12.3 03:31:50 27° SSW 03:38:49 43° SSE 03:57:12 10° E visible
18 Aug 12.7 01:38:35 21° SE 01:39:04 21° SE 01:49:31 10° E visible
18 Aug 12.3 03:51:15 25° SW 03:59:13 48° SSE 04:18:30 10° E visible
